| time (UTC) | temp C | wind direction | speed KPH | gust KPH | rain 1hr cm | rain 24hr cm | rain mn cm | humidity % | barometer mb |
| 20260906164605 | 32 | 49 | 6.4 | 16.1 | 0.00 | 0.00 | 0.00 | 69 | 1016.7 |
| 20260906163105 | 32 | 354 | 1.6 | 11.3 | 0.00 | 0.00 | 0.00 | 71 | 1016.8 |
| 20260906161607 | 31 | 316 | 1.6 | 17.7 | 0.00 | 0.00 | 0.00 | 72 | 1016.8 |
| 20260906160105 | 30 | 101 | 3.2 | 14.5 | 0.00 | 0.00 | 0.00 | 75 | 1016.8 |
| 20260906154607 | 30 | 66 | 1.6 | 8.0 | 0.00 | 0.00 | 0.00 | 76 | 1016.7 |
| 20260906153107 | 30 | 0 | 1.6 | 6.4 | 0.00 | 0.00 | 0.00 | 77 | 1016.5 |
| 20260906151606 | 29 | 41 | 3.2 | 11.3 | 0.00 | 0.00 | 0.00 | 78 | 1016.6 |
| 20260906150113 | 28 | 125 | 3.2 | 8.0 | 0.00 | 0.00 | 0.00 | 79 | 1016.7 |
| 20260906144623 | 28 | 105 | 4.8 | 9.7 | 0.00 | 0.00 | 0.00 | 80 | 1016.6 |
| 20260906143106 | 28 | 53 | 1.6 | 11.3 | 0.00 | 0.00 | 0.00 | 80 | 1016.5 |
| 20260906141632 | 28 | 79 | 0.0 | 9.7 | 0.00 | 0.00 | 0.00 | 82 | 1016.6 |
| 20260906140110 | 27 | 70 | 1.6 | 11.3 | 0.00 | 0.00 | 0.00 | 82 | 1016.5 |
| 20260906134608 | 27 | 61 | 3.2 | 11.3 | 0.00 | 0.00 | 0.00 | 84 | 1016.4 |
| 20260906133106 | 27 | 63 | 0.0 | 12.9 | 0.00 | 0.00 | 0.00 | 85 | 1016.3 |
| 20260906131607 | 26 | 82 | 0.0 | 8.0 | 0.00 | 0.00 | 0.00 | 89 | 1016.5 |
| 20260906130106 | 24 | 63 | 0.0 | 4.8 | 0.00 | 0.00 | 0.00 | 93 | 1016.3 |
| 20260906124607 | 22 | 0 | 0.0 | 1.6 | 0.00 | 0.00 | 0.00 | 95 | 1016.2 |
| 20260906123106 | 21 | 0 | 0.0 | 1.6 | 0.00 | 0.00 | 0.00 | 94 | 1016.0 |
| 20260906121607 | 21 | 217 | 0.0 | 0.0 | 0.00 | 0.00 | 0.00 | 94 | 1015.7 |
| 20260906120106 | 21 | 0 | 0.0 | 0.0 | 0.00 | 0.00 | 0.00 | 94 | 1015.7 |
| 20260906114608 | 21 | 0 | 0.0 | 0.0 | 0.00 | 0.00 | 0.00 | 94 | 1015.4 |
| 20260906113107 | 21 | 0 | 0.0 | 1.6 | 0.00 | 0.00 | 0.00 | 93 | 1015.4 |
| 20260906111603 | 22 | 0 | 0.0 | 0.0 | 0.00 | 0.00 | 0.00 | 94 | 1015.3 |
| 20260906110106 | 22 | 0 | 0.0 | 0.0 | 0.00 | 0.00 | 0.00 | 93 | 1015.2 |
| 20260906104626 | 22 | 0 | 0.0 | 0.0 | 0.00 | 0.00 | 0.00 | 93 | 1015.4 |
| 20260906103110 | 22 | 0 | 0.0 | 0.0 | 0.00 | 0.00 | 0.00 | 93 | 1015.2 |
| 20260906101604 | 22 | 0 | 0.0 | 0.0 | 0.00 | 0.00 | 0.00 | 93 | 1015.1 |
| 20260906100103 | 22 | 0 | 0.0 | 0.0 | 0.00 | 0.00 | 0.00 | 93 | 1014.9 |
| 20260906094643 | 22 | 0 | 0.0 | 0.0 | 0.00 | 0.00 | 0.00 | 93 | 1014.8 |
| 20260906093108 | 22 | 0 | 0.0 | 0.0 | 0.00 | 0.00 | 0.00 | 92 | 1014.7 |
| 20260906091617 | 22 | 0 | 0.0 | 0.0 | 0.00 | 0.00 | 0.00 | 93 | 1014.6 |
| 20260906090108 | 22 | 0 | 0.0 | 0.0 | 0.00 | 0.00 | 0.00 | 92 | 1014.4 |
| 20260906084605 | 22 | 0 | 0.0 | 0.0 | 0.00 | 0.00 | 0.00 | 92 | 1014.4 |
| 20260906083106 | 22 | 0 | 0.0 | 0.0 | 0.00 | 0.00 | 0.00 | 92 | 1014.3 |
| 20260906081604 | 22 | 0 | 0.0 | 0.0 | 0.00 | 0.00 | 0.00 | 92 | 1014.2 |
| 20260906080104 | 22 | 0 | 0.0 | 1.6 | 0.00 | 0.00 | 0.00 | 91 | 1014.2 |
| 20260906074613 | 23 | 0 | 0.0 | 0.0 | 0.00 | 0.00 | 0.00 | 91 | 1014.1 |
| 20260906073105 | 23 | 0 | 0.0 | 0.0 | 0.00 | 0.00 | 0.00 | 91 | 1014.2 |
| 20260906071607 | 23 | 0 | 0.0 | 0.0 | 0.00 | 0.00 | 0.00 | 91 | 1014.3 |
| 20260906070107 | 23 | 0 | 0.0 | 0.0 | 0.00 | 0.00 | 0.00 | 91 | 1014.4 |
| 20260906064604 | 23 | 0 | 0.0 | 0.0 | 0.00 | 0.00 | 0.00 | 91 | 1014.8 |
| 20260906063109 | 23 | 0 | 0.0 | 0.0 | 0.00 | 0.00 | 0.00 | 89 | 1014.7 |
| 20260906061610 | 23 | 0 | 0.0 | 0.0 | 0.00 | 0.00 | 0.00 | 87 | 1014.7 |
| 20260906060112 | 23 | 0 | 0.0 | 0.0 | 0.00 | 0.00 | 0.00 | 87 | 1014.7 |
| 20260906054601 | 23 | 0 | 0.0 | 0.0 | 0.00 | 0.00 | 0.00 | 88 | 1014.9 |
| 20260906053109 | 24 | 0 | 0.0 | 0.0 | 0.00 | 0.00 | 0.00 | 86 | 1014.9 |
| 20260906051605 | 24 | 0 | 0.0 | 0.0 | 0.00 | 0.00 | 0.00 | 86 | 1014.6 |
| 20260906050135 | 24 | 0 | 0.0 | 0.0 | 0.00 | 0.00 | 0.00 | 86 | 1014.6 |
| 20260906044602 | 25 | 0 | 0.0 | 0.0 | 0.00 | 0.00 | 0.00 | 86 | 1014.7 |
| 20260906043103 | 25 | 0 | 0.0 | 0.0 | 0.00 | 0.00 | 0.00 | 87 | 1014.7 |
| 20260906041605 | 25 | 0 | 0.0 | 0.0 | 0.00 | 0.00 | 0.00 | 86 | 1014.8 |
| 20260906040139 | 25 | 0 | 0.0 | 3.2 | 0.00 | 0.00 | 0.00 | 85 | 1014.7 |
| 20260906034606 | 25 | 0 | 0.0 | 0.0 | 0.00 | 0.00 | 0.00 | 82 | 1014.4 |
| 20260906033104 | 25 | 0 | 0.0 | 0.0 | 0.00 | 0.00 | 0.00 | 82 | 1014.3 |
| 20260906031606 | 26 | 0 | 0.0 | 0.0 | 0.00 | 0.00 | 0.00 | 81 | 1014.1 |
| 20260906030114 | 26 | 0 | 0.0 | 0.0 | 0.00 | 0.00 | 0.00 | 79 | 1014.2 |
| 20260906024606 | 26 | 0 | 0.0 | 3.2 | 0.00 | 0.00 | 0.00 | 79 | 1014.3 |
| 20260906023105 | 26 | 0 | 0.0 | 0.0 | 0.00 | 0.00 | 0.00 | 79 | 1014.0 |
| 20260906021609 | 27 | 0 | 0.0 | 0.0 | 0.00 | 0.00 | 0.00 | 77 | 1013.7 |
| 20260906020107 | 27 | 0 | 0.0 | 0.0 | 0.00 | 0.00 | 0.00 | 75 | 1013.6 |
| 20260906014602 | 28 | 65 | 0.0 | 1.6 | 0.00 | 0.00 | 0.00 | 72 | 1013.1 |
| 20260906013104 | 28 | 0 | 0.0 | 0.0 | 0.00 | 0.00 | 0.00 | 69 | 1013.0 |
| 20260906011605 | 29 | 0 | 0.0 | 1.6 | 0.00 | 0.00 | 0.00 | 66 | 1012.9 |
| 20260906010109 | 30 | 0 | 0.0 | 0.0 | 0.00 | 0.00 | 0.00 | 66 | 1012.9 |
| 20260906004605 | 31 | 0 | 0.0 | 0.0 | 0.00 | 0.00 | 0.00 | 60 | 1012.9 |
| 20260906003108 | 32 | 0 | 0.0 | 1.6 | 0.00 | 0.00 | 0.00 | 56 | 1012.8 |
| 20260906001619 | 33 | 0 | 0.0 | 1.6 | 0.00 | 0.00 | 0.00 | 50 | 1012.9 |
| 20260906000107 | 35 | 65 | 0.0 | 3.2 | 0.00 | 0.00 | 0.00 | 49 | 1013.0 |
| 20260905234602 | 35 | 11 | 0.0 | 3.2 | 0.00 | 0.00 | 0.00 | 46 | 1013.0 |
| 20260905233113 | 36 | 0 | 0.0 | 4.8 | 0.00 | 0.00 | 0.00 | 45 | 1012.8 |
| 20260905231607 | 36 | 0 | 1.6 | 8.0 | 0.00 | 0.00 | 0.00 | 44 | 1012.8 |
| 20260905230113 | 36 | 320 | 3.2 | 8.0 | 0.00 | 0.00 | 0.00 | 43 | 1012.9 |
| 20260905224607 | 36 | 318 | 3.2 | 9.7 | 0.00 | 0.00 | 0.00 | 43 | 1012.8 |
| 20260905223106 | 36 | 68 | 4.8 | 9.7 | 0.00 | 0.00 | 0.00 | 45 | 1012.9 |
| 20260905221606 | 35 | 322 | 1.6 | 8.0 | 0.00 | 0.00 | 0.00 | 48 | 1013.0 |
| 20260905220105 | 35 | 290 | 3.2 | 8.0 | 0.00 | 0.00 | 0.00 | 48 | 1013.1 |
| 20260905214608 | 35 | 321 | 1.6 | 8.0 | 0.00 | 0.00 | 0.00 | 45 | 1013.1 |
| 20260905213110 | 36 | 305 | 6.4 | 12.9 | 0.00 | 0.00 | 0.00 | 44 | 1013.2 |
| 20260905211606 | 36 | 27 | 6.4 | 17.7 | 0.00 | 0.00 | 0.00 | 42 | 1013.3 |
| 20260905210113 | 36 | 291 | 6.4 | 17.7 | 0.00 | 0.00 | 0.00 | 41 | 1013.5 |
| 20260905204604 | 37 | 40 | 4.8 | 11.3 | 0.00 | 0.00 | 0.00 | 41 | 1013.5 |
| 20260905203100 | 37 | 316 | 4.8 | 11.3 | 0.00 | 0.00 | 0.00 | 40 | 1013.7 |
| 20260905201610 | 37 | 299 | 4.8 | 12.9 | 0.00 | 0.00 | 0.00 | 40 | 1013.8 |
| 20260905200150 | 37 | 331 | 3.2 | 11.3 | 0.00 | 0.00 | 0.00 | 38 | 1014.0 |
| 20260905194614 | 37 | 290 | 3.2 | 11.3 | 0.00 | 0.00 | 0.00 | 40 | 1014.2 |
| 20260905193057 | 37 | 299 | 6.4 | 14.5 | 0.00 | 0.00 | 0.00 | 42 | 1014.2 |
| 20260905191603 | 37 | 310 | 4.8 | 11.3 | 0.00 | 0.00 | 0.00 | 38 | 1014.4 |
| 20260905190104 | 37 | 47 | 8.0 | 14.5 | 0.00 | 0.00 | 0.00 | 41 | 1014.5 |
| 20260905184611 | 36 | 317 | 6.4 | 16.1 | 0.00 | 0.00 | 0.00 | 46 | 1014.9 |
| 20260905183112 | 36 | 306 | 4.8 | 14.5 | 0.00 | 0.00 | 0.00 | 47 | 1015.0 |
| 20260905181610 | 36 | 237 | 6.4 | 20.9 | 0.00 | 0.00 | 0.00 | 44 | 1015.2 |
| 20260905180116 | 36 | 49 | 6.4 | 16.1 | 0.00 | 0.00 | 0.00 | 44 | 1015.3 |
| 20260905174606 | 35 | 307 | 4.8 | 12.9 | 0.00 | 0.00 | 0.00 | 47 | 1015.4 |
| 20260905173106 | 35 | 41 | 4.8 | 14.5 | 0.00 | 0.00 | 0.00 | 47 | 1015.7 |
| 20260905171608 | 35 | 292 | 4.8 | 14.5 | 0.00 | 0.00 | 0.00 | 50 | 1015.8 |
| 20260905170107 | 35 | 317 | 4.8 | 14.5 | 0.00 | 0.00 | 0.00 | 50 | 1015.8 |